Albert Lea, MN

6:26 AM CDT on July 28, 2017 (GMT -0500)
Albert Lea Municipal

Weather History for KAEL - June, 2013

Change the Weather History Date:

Friday, June 14, 2013

  Actual Average Record
Temperature  
Mean Temperature 67 °F -  
Max Temperature 75 °F 74 °F 87 °F (2007)
Min Temperature 59 °F 54 °F 51 °F (1999)
Cooling Degree Days 2    
Growing Degree Days 17 (Base 50)    
Moisture  
Dew Point 58 °F    
Average Humidity 68    
Maximum Humidity 88    
Minimum Humidity 53    
Precipitation  
Precipitation 0.00 in - - ()
Sea Level Pressure  
Sea Level Pressure 30.00 in    
Wind  
Wind Speed 7 mph (SSE)    
Max Wind Speed 18 mph    
Max Gust Speed 25 mph    
Visibility 10 miles    
Events Rain , Thunderstorm    
Averages and records for this station are not official NWS values.
T = Trace of Precipitation, MM = Missing Value Source: NWS Daily Summary

Daily Weather History Graph

Daily Weather History Graph

Search for Another Location

Airport or City:

Trip Planner

Search our weather history database for the weather conditions in past years. The results will help you decide how hot, cold, wet, or windy it might be!

Date:

Astronomy

Jun. 14, 2013 Rise Set
Actual Time 5:31 AM CDT 8:56 PM CDT
Civil Twilight 4:55 AM CDT 9:32 PM CDT
Nautical Twilight 4:08 AM CDT 10:19 PM CDT
Astronomical Twilight 3:09 AM CDT 11:18 PM CDT
Moon 11:16 AM CDT (6/14) No Moon Set
Length of Visible Light 16h 37m
Length of Day
15h 25m
Waxing Crescent, 30% of the Moon is Illuminated
Jun 14
Waxing Crescent
Jun 16
First Quarter
Jun 23
Full
Jun 29
Last Quarter
Jul 8
New

Hourly Weather History & Observations

Time (CDT) Temp. Dew Point Humidity Pressure Visibility Wind Dir Wind Speed Gust Speed Precip Events Conditions
12:11 AM 64.4 °F 55.4 °F 73% 30.06 in 10.0 mi Calm Calm - N/A   Clear
12:32 AM 62.6 °F 55.4 °F 77% 30.07 in 10.0 mi Calm Calm - N/A   Clear
12:52 AM 62.6 °F 55.4 °F 77% 30.06 in 7.0 mi Calm Calm - N/A   Clear
1:11 AM 60.8 °F 55.4 °F 82% 30.06 in 10.0 mi Calm Calm - N/A   Clear
1:32 AM 60.8 °F 55.4 °F 82% 30.07 in 10.0 mi Calm Calm - N/A   Clear
1:52 AM 60.8 °F 55.4 °F 82% 30.08 in 10.0 mi Calm Calm - N/A   Clear
2:11 AM 60.8 °F 55.4 °F 82% 30.08 in 10.0 mi Calm Calm - N/A   Clear
2:32 AM 59.0 °F 55.4 °F 88% 30.08 in 10.0 mi Calm Calm - N/A   Clear
2:52 AM 59.0 °F 55.4 °F 88% 30.07 in 10.0 mi Calm Calm - N/A   Clear
3:11 AM 59.0 °F 55.4 °F 88% 30.06 in 10.0 mi Calm Calm - N/A   Clear
3:32 AM 59.0 °F 55.4 °F 88% 30.07 in 10.0 mi Calm Calm - N/A   Clear
3:52 AM 60.8 °F 57.2 °F 88% 30.07 in 10.0 mi Calm Calm - N/A   Clear
4:11 AM 60.8 °F 55.4 °F 82% 30.08 in 10.0 mi Calm Calm - N/A   Clear
4:32 AM 60.8 °F 55.4 °F 82% 30.09 in 10.0 mi Calm Calm - N/A   Clear
4:52 AM 60.8 °F 57.2 °F 88% 30.09 in 10.0 mi Calm Calm - N/A   Clear
5:11 AM 60.8 °F 57.2 °F 88% 30.07 in 10.0 mi East 4.6 mph - N/A   Clear
5:32 AM 62.6 °F 57.2 °F 82% 30.05 in 10.0 mi SE 6.9 mph - N/A   Clear
5:51 AM 64.4 °F 55.4 °F 73% 30.04 in 10.0 mi ESE 8.1 mph - N/A   Clear
6:12 AM 64.4 °F 55.4 °F 73% 30.06 in 10.0 mi SSE 5.8 mph - N/A   Clear
6:31 AM 64.4 °F 55.4 °F 73% 29.98 in 10.0 mi SE 18.4 mph 21.9 mph N/A   Scattered Clouds
6:51 AM 64.4 °F 55.4 °F 73% 29.99 in 10.0 mi SE 12.7 mph 16.1 mph N/A Rain Light Rain
7:12 AM 64.4 °F 55.4 °F 73% 30.09 in 10.0 mi NNE 3.5 mph - N/A Rain , Thunderstorm Light Thunderstorms and Rain
7:31 AM 66.2 °F 55.4 °F 68% 30.08 in 10.0 mi East 4.6 mph - N/A   Clear
7:51 AM 66.2 °F 55.4 °F 68% 30.06 in 10.0 mi ESE 8.1 mph - N/A   Clear
8:12 AM 66.2 °F 55.4 °F 68% 30.07 in 10.0 mi SE 8.1 mph - N/A   Clear
8:31 AM 66.2 °F 55.4 °F 68% 30.07 in 10.0 mi SSE 10.4 mph - N/A   Scattered Clouds
8:51 AM 66.2 °F 55.4 °F 68% 30.07 in 10.0 mi SSE 11.5 mph 16.1 mph N/A   Scattered Clouds
9:12 AM 68.0 °F 57.2 °F 68% 30.07 in 10.0 mi SSE 13.8 mph 19.6 mph N/A   Scattered Clouds
9:31 AM 69.8 °F 57.2 °F 64% 30.06 in 7.0 mi SSE 11.5 mph 18.4 mph N/A   Scattered Clouds
9:52 AM 71.6 °F 57.2 °F 60% 30.06 in 10.0 mi SSE 8.1 mph 19.6 mph N/A   Scattered Clouds
10:12 AM 71.6 °F 57.2 °F 60% 30.05 in 10.0 mi SSE 15.0 mph 18.4 mph N/A   Clear
10:31 AM 71.6 °F 59.0 °F 64% 30.05 in 10.0 mi SSE 16.1 mph - N/A   Clear
10:52 AM 71.6 °F 59.0 °F 64% 30.03 in 10.0 mi SSE 13.8 mph 21.9 mph N/A   Clear
11:12 AM 71.6 °F 59.0 °F 64% 30.03 in 10.0 mi SSE 15.0 mph 24.2 mph N/A   Scattered Clouds
11:31 AM 71.6 °F 60.8 °F 69% 30.03 in 10.0 mi SSE 17.3 mph 24.2 mph N/A   Scattered Clouds
11:52 AM 71.6 °F 60.8 °F 69% 30.04 in 10.0 mi SSE 13.8 mph 23.0 mph N/A   Scattered Clouds
12:12 PM 71.6 °F 60.8 °F 69% 30.03 in 10.0 mi SE 12.7 mph 21.9 mph N/A   Mostly Cloudy
12:31 PM 73.4 °F 59.0 °F 61% 30.04 in 10.0 mi SSE 16.1 mph 21.9 mph N/A   Mostly Cloudy
12:52 PM 73.4 °F 59.0 °F 61% 30.02 in 10.0 mi SE 13.8 mph 21.9 mph N/A   Scattered Clouds
1:11 PM 75.2 °F 59.0 °F 57% 30.01 in 10.0 mi SSE 16.1 mph 24.2 mph N/A   Scattered Clouds
1:32 PM 75.2 °F 57.2 °F 53% 30.01 in 10.0 mi SSE 16.1 mph 21.9 mph N/A   Clear
1:51 PM 75.2 °F 57.2 °F 53% 30.00 in 10.0 mi SSE 15.0 mph 23.0 mph N/A   Clear
2:11 PM 73.4 °F 59.0 °F 61% 30.00 in 10.0 mi SSE 10.4 mph 23.0 mph N/A   Mostly Cloudy
2:32 PM 75.2 °F 57.2 °F 53% 29.99 in 10.0 mi SSE 17.3 mph 23.0 mph N/A   Mostly Cloudy
2:51 PM 75.2 °F 57.2 °F 53% 30.01 in 7.0 mi SSE 15.0 mph 23.0 mph N/A   Mostly Cloudy
3:11 PM 75.2 °F 59.0 °F 57% 30.02 in 10.0 mi SSE 10.4 mph 18.4 mph N/A   Mostly Cloudy
3:32 PM 75.2 °F 59.0 °F 57% 29.98 in 10.0 mi SSE 16.1 mph 19.6 mph N/A   Scattered Clouds
3:51 PM 75.2 °F 59.0 °F 57% 29.97 in 10.0 mi SSE 17.3 mph 20.7 mph N/A   Clear
4:11 PM 75.2 °F 60.8 °F 61% 29.95 in 10.0 mi SSE 15.0 mph 20.7 mph N/A   Clear
4:32 PM 75.2 °F 59.0 °F 57% 29.94 in 10.0 mi SSE 15.0 mph 23.0 mph N/A   Clear
4:51 PM 75.2 °F 59.0 °F 57% 29.94 in 10.0 mi SSE 15.0 mph 20.7 mph N/A   Clear
5:11 PM 75.2 °F 57.2 °F 53% 29.94 in 10.0 mi SSE 13.8 mph 19.6 mph N/A   Scattered Clouds
5:32 PM 73.4 °F 57.2 °F 57% 29.95 in 10.0 mi South 12.7 mph 19.6 mph N/A   Mostly Cloudy
5:51 PM 73.4 °F 57.2 °F 57% 29.94 in 10.0 mi South 12.7 mph 17.3 mph N/A   Mostly Cloudy
6:11 PM 75.2 °F 59.0 °F 57% 29.93 in 10.0 mi SSE 13.8 mph 21.9 mph N/A   Scattered Clouds
6:32 PM 75.2 °F 60.8 °F 61% 29.91 in 10.0 mi SSE 13.8 mph 23.0 mph N/A   Clear
6:52 PM 73.4 °F 59.0 °F 61% 29.89 in 10.0 mi SSE 18.4 mph 25.3 mph N/A   Clear
7:11 PM 73.4 °F 59.0 °F 61% 29.90 in 10.0 mi SSE 16.1 mph 23.0 mph N/A   Clear
7:32 PM 73.4 °F 59.0 °F 61% 29.93 in 10.0 mi South 12.7 mph 20.7 mph N/A Rain Light Rain
7:52 PM 73.4 °F 59.0 °F 61% 29.92 in 10.0 mi South 11.5 mph 18.4 mph N/A   Clear
8:11 PM 71.6 °F 59.0 °F 64% 29.92 in 10.0 mi SSE 11.5 mph 17.3 mph N/A   Clear
8:32 PM 71.6 °F 59.0 °F 64% 29.92 in 10.0 mi SSE 10.4 mph - N/A   Mostly Cloudy
8:51 PM 71.6 °F 59.0 °F 64% 29.93 in 10.0 mi SSE 6.9 mph - N/A   Overcast
9:11 PM 71.6 °F 59.0 °F 64% 29.92 in 10.0 mi SE 9.2 mph - N/A   Overcast
9:32 PM 71.6 °F 59.0 °F 64% 29.90 in 10.0 mi SE 10.4 mph 16.1 mph N/A   Scattered Clouds
9:51 PM 69.8 °F 59.0 °F 68% 29.87 in 10.0 mi SE 10.4 mph - N/A   Clear
10:12 PM 69.8 °F 59.0 °F 68% 29.89 in 10.0 mi SE 9.2 mph - N/A   Scattered Clouds
10:32 PM 69.8 °F 59.0 °F 68% 29.91 in 10.0 mi SSE 10.4 mph 18.4 mph N/A   Mostly Cloudy
10:51 PM 69.8 °F 59.0 °F 68% 29.92 in 10.0 mi SSE 9.2 mph 16.1 mph N/A   Mostly Cloudy
11:12 PM 69.8 °F 59.0 °F 68% 29.91 in 10.0 mi SSE 15.0 mph - N/A   Mostly Cloudy
11:32 PM 69.8 °F 59.0 °F 68% 29.92 in 10.0 mi SSE 12.7 mph 19.6 mph N/A Thunderstorm Mostly Cloudy
11:51 PM 69.8 °F 57.2 °F 64% 29.94 in 10.0 mi South 13.8 mph 18.4 mph N/A Thunderstorm Thunderstorm